User: anonymous   Login
Location: Fort Wayne
(41.1310°N, 85.1290°W)
Time: 20:14:30
(UTC-04:00)
Language:

Cosmos 1000 Rocket - Orbit

View from above orbital plane
View from above orbital plane
View from above satellite
View from above satellite

Ground track
Ground track

The orbit data is extracted from the following two-line orbital elements,

1 10777U 78034B   16179.95390529 +.00000087 +00000-0 +71294-4 0  9992
2 10777 082.9430 134.0529 0027514 108.9524 311.1433 13.77379342921624
Epoch (UTC): 27 June 2016 22:53:37
Eccentricity: 0.0027514
inclination: 82.9430°
perigee height: 953 km
apogee height: 993 km
right ascension of ascending node: 134.0529°
argument of perigee: 108.9524°
revolutions per day: 13.77379342
mean anomaly at epoch: 311.1433°
orbit number at epoch: 92162

The dashed part of the orbit path shows where the satellite is in the earth's shadow,  

DLR